カタログに戻る

STARLINK-31488

運用中通信VLEO
NORAD 59009·PAYLOAD·🇺🇸 United States

打ち上げ Feb 23, 2024 から Vandenberg Space Force Base

Loading…

次のパス (今後24時間)

TLE

最新Source: CelesTrak SupGP

元期: Sep 15, 2026, 02:55 UTC

1 59009C 24036M   26258.12201389 -.00006825  00000+0 -20159-3 0  2587
2 59009  53.1581 276.6953 0001400  83.1891  69.9403 15.34400529    16

AllMySatでSTARLINK-31488をリアルタイム追跡

Download on the App Store